Change the Weather History Date:

Monday, December 3, 2012

  Actual Average Record
Temperature  
Mean Temperature 64 °F -  
Max Temperature 80 °F 75 °F 82 °F (2002)
Min Temperature 48 °F 44 °F 37 °F (2008)
Degree Days  
Heating Degree Days 1    
Growing Degree Days 14 (Base 50)    
Moisture  
Dew Point 37 °F    
Average Humidity 40    
Maximum Humidity 66    
Minimum Humidity 18    
Precipitation  
Precipitation 0.00 in - - ()
Sea Level Pressure  
Sea Level Pressure 30.15 in    
Wind  
Wind Speed 2 mph ()    
Max Wind Speed 10 mph    
Max Gust Speed -    
Visibility 8.8 miles    
Events      
Averages and records for this station are not official NWS values.
T = Trace of Precipitation, MM = Missing Value Source: Averaged Metar Reports

Daily Weather History Graph

Daily Weather History Graph

Search for Another Location

Airport or City:

Trip Planner

Search our weather history database for the weather conditions in past years. The results will help you decide how hot, cold, wet, or windy it might be!

Date:

Astronomy

Dec. 03, 2012 Rise Set
Actual Time 7:08 AM CST 6:03 PM CST
Civil Twilight 6:44 AM CST 6:27 PM CST
Nautical Twilight 6:16 AM CST 6:55 PM CST
Astronomical Twilight 5:49 AM CST 7:22 PM CST
Moon 10:32 PM CST (12/3) 10:49 AM CST (12/3)
Length of Visible Light 11h 43m
Length of Day
10h 55m
Waning Gibbous, 78% of the Moon is Illuminated
Dec 3
Waning Gibbous
Dec 6
Last Quarter
Dec 13
New
Dec 19
First Quarter
Dec 28
Full

Hourly Weather History & Observations

Time (CST) Temp. Dew Point Humidity Pressure Visibility Wind Dir Wind Speed Gust Speed Precip Events Conditions
12:47 AM 60.8 °F 41.0 °F 48% 30.28 in 8.0 mi Calm Calm - N/A   Mostly Cloudy
1:51 AM 55.4 °F 41.0 °F 58% 30.27 in 8.0 mi ENE 6.9 mph - N/A   Scattered Clouds
3:46 AM 53.6 °F 39.2 °F 58% 30.26 in 8.0 mi Calm Calm - N/A   Scattered Clouds
4:45 AM 51.8 °F 39.2 °F 62% 30.25 in 8.0 mi Calm Calm - N/A   Clear
5:49 AM 53.6 °F 39.2 °F 58% 29.96 in 8.0 mi Calm Calm - N/A   Clear
6:46 AM 48.2 °F 37.4 °F 66% 30.27 in 8.0 mi North 6.9 mph - N/A   Scattered Clouds
7:44 AM 51.8 °F 39.2 °F 62% 30.30 in 8.0 mi Calm Calm - N/A   Mostly Cloudy
8:41 AM 60.8 °F 39.2 °F 45% 30.01 in 9.0 mi Calm Calm - N/A   Scattered Clouds
9:41 AM 68.0 °F 37.4 °F 33% 30.33 in 9.0 mi Calm Calm - N/A   Scattered Clouds
10:45 AM 71.6 °F 37.4 °F 29% 30.33 in 10.0 mi South 4.6 mph - N/A   Scattered Clouds
11:41 AM 75.2 °F 37.4 °F 25% 29.93 in 10.0 mi Calm Calm - N/A   Mostly Cloudy
12:43 PM 78.8 °F 37.4 °F 23% 30.27 in 10.0 mi Calm Calm - N/A   Mostly Cloudy
1:44 PM 80.6 °F 37.4 °F 21% 30.24 in 10.0 mi West 9.2 mph - N/A   Mostly Cloudy
2:44 PM 80.6 °F 35.6 °F 20% 29.79 in 10.0 mi West 6.9 mph - N/A   Mostly Cloudy
3:50 PM 80.6 °F 33.8 °F 18% 30.18 in 10.0 mi West 6.9 mph - N/A   Mostly Cloudy
4:45 PM 77.0 °F 33.8 °F 21% 30.18 in 10.0 mi West 10.4 mph - N/A   Mostly Cloudy
5:47 PM 73.4 °F 35.6 °F 25% 29.88 in 10.0 mi West 5.8 mph - N/A   Mostly Cloudy
6:45 PM 66.2 °F 35.6 °F 32% 30.21 in 8.0 mi WNW 6.9 mph - N/A   Mostly Cloudy
7:44 PM 62.6 °F 35.6 °F 37% 30.21 in 7.0 mi ENE 3.5 mph - N/A   Scattered Clouds
8:43 PM 60.8 °F 35.6 °F 39% 29.95 in 8.0 mi NE 5.8 mph - N/A   Scattered Clouds
9:48 PM 59.0 °F 35.6 °F 42% 30.24 in 10.0 mi Calm Calm - N/A   Scattered Clouds
10:51 PM 53.6 °F 35.6 °F 51% 30.27 in 8.0 mi Calm Calm - N/A   Partly Cloudy
11:50 PM 53.6 °F 35.6 °F 51% 29.92 in 8.0 mi Calm Calm - N/A   Partly Cloudy